Vertical_Velocity
1 -2 0 1 -2 -1 0 -0 0 -1 -1 -1 -0 0 1 2 -1 -2 -0 -1 -0 -1 -2 0 2 -1 0 1 -1 -0 1 1 2 2 0 -0 -0 0 0 1 1 0 -0 -1 -1 -1 -1 -0 -1
1 -2 2 -1 -2 -2 -0 -1 -2 -0 -1 -1 0 -0 0 -3 -0 -0 0 -1 -1 -1 -1 -1 1 -1 1 -0 1 1 1 1 1 0 0 0 -1 -0 0 1 0 1 0 -0 -1 -1 2 -1 -1
2 1 2 -1 -1 -1 -2 1 -1 0 1 -1 -2 -0 -1 -1 1 -1 -1 -0 -0 0 -2 -1 1 -1 -0 5 0 0 -0 -0 1 0 1 0 0 1 1 0 0 -0 -0 -0 -1 -1 3 0 -1
-1 2 2 0 -1 1 -1 -1 -1 -0 -0 -1 -1 -2 -1 -0 1 -0 -0 -2 -1 -2 -1 -1 1 0 6 6 2 1 -1 2 -0 -0 2 0 -2 -1 1 0 0 -0 1 1 0 -0 -0 -1 -1
-0 3 0 -0 -2 -2 -2 -1 -2 -1 -0 -1 -1 -1 -0 -1 -0 -0 -2 -1 -1 -1 -2 -1 -2 2 2 1 2 -1 4 1 1 0 2 0 1 1 -1 -1 -1 1 1 -0 3 4 1 1 -1
-1 -0 -2 -2 -3 -3 -1 -1 -2 -1 -2 0 -1 -1 0 1 1 0 -0 -2 -2 -1 -2 -0 -0 -2 -1 -2 1 0 1 1 0 0 0 1 0 1 -0 0 0 0 -1 -1 0 3 1 2 2
1 1 -2 -0 -0 -2 -2 1 -1 -1 -2 -3 -1 0 -1 2 0 -1 0 -1 -1 -1 -2 -3 -1 0 -0 -0 -0 0 -1 -3 -1 0 0 1 -2 -1 1 1 -0 -0 1 -0 0 -0 -0 -2 2
2 1 -1 -2 -4 -2 -1 -1 -2 -1 0 -2 -3 -2 1 -0 0 -1 -2 0 -1 -2 -2 -2 -2 -2 -1 -1 -1 -0 -1 -1 -1 -1 -2 -2 0 0 -1 -0 2 1 -0 0 2 -0 -0 4 8
-1 -1 -0 -3 -4 -1 -0 -2 -1 -0 0 -1 -3 -0 2 1 -1 0 -0 -2 -1 0 0 -1 -3 -2 -1 -0 1 1 0 -1 -1 0 1 0 -0 -0 -2 -1 0 1 2 -0 -0 1 1 0 -0
-0 -0 -2 -1 -2 -1 -1 -2 -2 -1 -0 -1 -2 -1 -1 -1 -1 -3 -2 -1 -1 0 -2 -1 -1 -2 -3 -3 -3 -1 0 1 -1 -1 0 -2 0 5 2 -0 -0 -0 1 2 1 -1 2 1 1
-1 -1 -1 -1 0 1 0 -1 -1 -0 -1 -0 -0 -2 -1 0 -2 -2 -3 -1 -0 -0 1 1 1 -1 1 1 -0 -2 -1 -1 2 2 -0 -0 -1 -1 -1 -1 1 0 1 0 1 2 -1 1 4
-1 1 -2 -1 -0 0 1 -0 -0 -1 -1 -0 -1 -2 -2 -1 -3 1 1 1 -0 -2 -1 -1 -3 -1 -1 -2 0 1 -1 -4 -1 -0 2 0 1 1 -1 -0 -0 -1 -0 0 1 -1 -1 -0 -1
2 -1 -0 -1 -1 -2 1 -1 -0 -1 -2 1 1 -2 -2 -3 -1 -0 2 1 0 1 0 -1 -2 -2 -2 1 -2 -1 1 2 1 -1 1 -1 -0 -0 0 1 1 0 -3 -2 -2 2 5 2 1
-4 1 -1 0 0 -2 0 -1 -0 -2 -1 -2 -0 -2 -2 -1 -1 -2 -2 -0 -1 0 -2 -2 1 -0 0 1 1 2 -0 -1 -1 3 3 2 -2 -1 -0 -0 1 -1 1 0 1 -2 2 2 4
0 -2 1 2 -1 -1 0 -2 -0 -0 -0 -1 -1 -2 1 -0 1 -0 -2 -3 -2 -2 -0 -1 1 -1 -1 0 -1 -1 1 0 1 0 -1 -2 -1 -3 -3 -1 0 1 4 1 -0 5 5 7 3
-2 1 1 0 -2 -2 -1 -1 -0 1 1 -1 -0 -3 -1 1 -0 -1 -2 -2 -4 -3 -3 -3 -2 -3 -1 -1 -1 -1 -2 -2 -3 -3 -2 -1 -1 -0 -1 -5 -2 5 0 1 1 9 4 1 -1
-0 -2 -2 -1 -1 -1 -0 -1 -1 -0 0 -1 -1 -1 1 0 -1 -2 -3 -2 -2 -1 -1 -1 -5 -3 0 -2 -2 -2 -3 -0 -1 -1 -1 -2 0 2 -3 -0 -0 -1 -2 1 4 4 1 1 5
-2 -1 -1 -1 -3 -1 -0 -4 -2 -1 -4 1 0 -2 -0 0 -2 -2 -3 -2 -4 -5 -5 -2 -4 -1 -3 -2 -2 -3 -3 -2 -3 -1 -3 -2 -2 -1 -1 0 4 3 0 2 3 4 5 2 5
-0 1 -1 -1 -2 -3 0 -7 6 6 -7 -4 -2 -0 2 0 -1 -1 -1 1 -1 -3 -2 -1 -2 -3 -1 -3 1 2 2 -1 -6 -5 -5 -5 -1 -1 -4 -7 -2 7 1 5 4 4 2 1 2
-1 -1 -2 -1 -2 -3 1 -9 -4 -2 3 0 -0 2 -0 -0 0 -2 -3 -3 -3 -0 -2 -4 -2 -2 -2 -3 -5 -2 -2 -2 -3 -4 -4 -4 -3 -7 -1 -9 -5 1 -1 3 5 6 4 3 2
-1 -1 -1 -2 -1 -1 -5 -13 -8 -3 -2 -1 1 -1 0 1 -2 -2 -2 -2 -2 -1 -2 -2 -1 -3 0 -2 -2 -3 -6 -6 -4 -4 -1 -8 -6 -5 -3 -2 -7 -3 1 -1 4 4 2 2 1
-1 -1 -2 -2 -2 -2 -2 -11 -13 -2 0 2 2 1 -0 -3 -1 -3 -4 -3 -3 -4 -2 -3 -3 -1 -4 -1 -4 -3 -2 -3 -1 -2 -4 -4 -5 -0 -2 -7 -9 -2 0 3 5 -0 5 2 -2
-2 -1 -1 -1 -1 0 -0 2 -8 -1 -2 0 -1 -2 -1 -0 -1 -2 -3 -2 -2 -2 -4 -3 -1 -2 -1 -2 -2 -2 -1 -1 -2 -1 -3 -5 -0 -2 -4 -4 -4 -3 3 3 0 4 -2 1 3
-1 -1 -1 -2 -0 -0 -1 -1 -10 -6 -3 -2 -2 -2 0 0 -1 -2 -3 -2 -3 -3 -2 -3 -2 -0 -0 -2 -1 1 -1 -2 -1 -1 -3 -3 -2 1 -11 2 -4 -0 -1 6 5 2 5 -2 -1
0 -1 -2 -7 -3 -6 0 1 -16 -1 -1 0 0 2 1 -2 -2 -3 -3 -2 -3 -4 -1 -2 -1 -1 -1 1 3 -2 -4 -2 -2 -3 -3 -5 -4 -4 -0 -5 0 -1 1 -1 5 8 5 0 2
1 0 0 -4 -2 -4 -0 -6 -4 0 -0 -1 -0 -1 -1 -4 -2 -1 -2 -1 -2 -1 -1 -1 -1 -1 -2 -2 -3 -3 -2 -2 -1 -0 -1 -2 -4 -3 -3 -2 -2 -2 -5 10 -3 -2 2 -1 -2
-1 -2 -1 -1 1 -1 -0 -4 -8 -1 -1 -3 -4 -4 -3 -3 -2 -2 -0 -0 -2 -1 2 1 1 1 -1 -2 -2 -3 -2 -2 -1 -2 -2 -1 -0 -1 -1 -3 -1 -1 0 0 5 6 1 0 1
0 -0 -2 -1 -4 -2 -4 -5 -13 -3 -3 -3 -3 -2 -1 -0 -1 -1 -3 -3 -2 -0 1 -2 -1 -0 1 0 0 -0 -1 -1 -1 -1 -2 -4 -5 -3 -1 -3 -2 -1 -2 -1 1 -4 1 4 4
-0 -2 -1 -1 -1 -3 -1 -12 -3 0 -1 0 1 -2 -3 -2 -2 -4 -4 -2 -0 -1 -0 -1 -2 -2 -2 -1 -1 -2 -2 -2 -2 -3 -2 -1 0 -1 -2 -1 1 0 0 1 2 1 6 5 3
-0 -1 1 -1 -2 0 1 -32 5 2 -1 -0 1 -0 1 1 -1 -1 -1 -1 1 -1 -2 -1 -3 -3 -2 -2 -3 -2 -2 -3 -3 -3 -1 0 0 1 -0 -0 -1 -0 -0 2 0 2 3 4 2
Height
3144 3147 3148 3151 3157 3154 3154 3157 3159 3161 3164 3165 3166 3167 3168 3168 3169 3173 3169 3169 3170 3170 3170 3171 3172 3172 3172 3173 3173 3173 3173 3172 3172 3171 3171 3170 3169 3168 3167 3166 3165 3164 3164 3164 3163 3163 3162 3161 3160
3142 3145 3148 3149 3153 3151 3154 3156 3159 3161 3163 3164 3165 3166 3167 3167 3168 3168 3169 3169 3169 3169 3170 3170 3170 3170 3170 3171 3171 3172 3172 3171 3171 3171 3171 3170 3169 3168 3167 3166 3165 3164 3163 3163 3163 3163 3162 3161 3160
3141 3143 3147 3149 3150 3151 3154 3156 3158 3161 3162 3164 3165 3165 3166 3166 3166 3167 3167 3167 3167 3168 3168 3168 3169 3169 3170 3170 3170 3170 3170 3170 3170 3170 3170 3169 3168 3167 3166 3165 3164 3163 3163 3162 3162 3162 3161 3161 3160
3140 3143 3146 3146 3148 3151 3153 3156 3158 3160 3161 3162 3163 3165 3165 3165 3165 3165 3165 3165 3165 3166 3166 3167 3167 3167 3168 3168 3169 3168 3168 3168 3168 3168 3168 3167 3167 3166 3165 3164 3163 3161 3161 3161 3161 3161 3161 3160 3159
3138 3141 3143 3145 3148 3150 3152 3155 3157 3159 3160 3162 3163 3163 3163 3163 3163 3163 3164 3164 3164 3164 3163 3165 3165 3166 3166 3165 3165 3166 3165 3166 3166 3166 3166 3166 3165 3165 3164 3163 3162 3161 3160 3158 3158 3159 3159 3159 3159
3137 3140 3141 3144 3146 3149 3152 3154 3156 3158 3159 3160 3161 3162 3161 3161 3161 3162 3162 3162 3162 3162 3162 3162 3163 3163 3163 3163 3163 3163 3163 3163 3163 3163 3163 3163 3162 3162 3161 3161 3160 3159 3158 3158 3157 3157 3156 3156 3156
3136 3138 3140 3143 3146 3148 3151 3152 3155 3157 3158 3160 3160 3160 3160 3160 3161 3161 3160 3160 3160 3160 3160 3160 3160 3160 3160 3160 3160 3160 3160 3159 3159 3159 3159 3159 3158 3158 3158 3157 3157 3156 3156 3154 3154 3154 3154 3154 3153
3135 3137 3139 3142 3145 3148 3149 3151 3154 3155 3156 3158 3159 3158 3159 3160 3159 3159 3159 3160 3160 3159 3158 3157 3156 3156 3156 3156 3156 3156 3156 3155 3155 3154 3154 3153 3153 3153 3153 3153 3153 3152 3152 3151 3151 3151 3150 3150 3150
3133 3137 3138 3141 3145 3147 3149 3151 3153 3153 3154 3155 3157 3157 3158 3158 3158 3158 3158 3158 3157 3157 3156 3155 3154 3153 3153 3152 3152 3151 3151 3150 3149 3149 3148 3148 3147 3148 3147 3148 3148 3147 3147 3147 3147 3147 3147 3146 3146
3132 3135 3138 3143 3145 3147 3148 3150 3151 3152 3152 3153 3155 3155 3155 3155 3155 3156 3155 3155 3154 3153 3152 3152 3151 3149 3148 3148 3147 3146 3146 3146 3144 3143 3143 3142 3142 3141 3141 3141 3141 3142 3142 3142 3142 3142 3141 3141 3141
3133 3136 3139 3142 3144 3146 3147 3149 3149 3150 3151 3152 3153 3153 3153 3152 3152 3152 3152 3151 3150 3149 3149 3147 3146 3145 3144 3143 3141 3140 3140 3139 3138 3138 3136 3135 3135 3135 3135 3135 3135 3135 3135 3135 3135 3136 3135 3135 3135
3132 3135 3138 3141 3143 3145 3146 3147 3148 3149 3150 3151 3151 3151 3151 3149 3148 3149 3148 3147 3147 3145 3144 3142 3141 3140 3138 3138 3136 3135 3133 3132 3131 3130 3129 3128 3128 3128 3128 3128 3128 3128 3129 3128 3128 3129 3129 3129 3129
3131 3135 3138 3140 3142 3144 3145 3146 3146 3147 3147 3148 3147 3147 3147 3146 3147 3146 3145 3144 3142 3141 3139 3137 3135 3134 3132 3131 3129 3128 3126 3125 3124 3122 3122 3119 3118 3118 3119 3120 3120 3119 3120 3120 3121 3121 3121 3121 3122
3131 3135 3137 3139 3140 3142 3143 3144 3144 3145 3145 3144 3144 3142 3142 3143 3143 3142 3141 3139 3137 3136 3134 3131 3129 3127 3125 3123 3121 3120 3118 3116 3115 3114 3113 3111 3109 3108 3108 3109 3110 3110 3111 3110 3111 3112 3113 3113 3113
3130 3135 3137 3138 3139 3141 3141 3142 3142 3142 3142 3142 3141 3139 3139 3138 3137 3137 3135 3134 3132 3129 3127 3125 3123 3121 3118 3115 3113 3111 3109 3107 3106 3105 3103 3102 3101 3098 3097 3096 3097 3099 3101 3100 3100 3102 3103 3103 3104
3132 3135 3136 3137 3138 3139 3140 3140 3140 3139 3138 3138 3137 3135 3135 3134 3132 3131 3130 3128 3126 3124 3122 3119 3116 3114 3111 3107 3105 3103 3101 3099 3097 3095 3093 3091 3090 3088 3086 3085 3085 3086 3087 3088 3090 3091 3092 3094 3096
3132 3133 3134 3136 3136 3136 3137 3136 3136 3136 3135 3135 3132 3131 3130 3129 3128 3126 3124 3122 3120 3118 3116 3113 3109 3106 3103 3101 3099 3096 3093 3091 3088 3086 3083 3081 3078 3076 3075 3074 3074 3074 3075 3076 3078 3080 3082 3084 3086
3130 3132 3132 3134 3135 3134 3133 3133 3133 3130 3128 3130 3128 3127 3126 3125 3123 3122 3121 3119 3116 3113 3111 3108 3104 3101 3098 3095 3093 3091 3087 3083 3080 3077 3075 3073 3070 3066 3063 3062 3061 3062 3062 3065 3067 3069 3072 3075 3078
3130 3130 3131 3132 3132 3131 3129 3128 3130 3128 3124 3124 3124 3122 3121 3121 3119 3118 3116 3114 3112 3109 3106 3102 3098 3094 3092 3090 3087 3085 3081 3078 3075 3071 3067 3063 3058 3055 3053 3049 3049 3049 3049 3051 3055 3058 3061 3064 3068
3129 3129 3130 3131 3130 3128 3126 3123 3124 3123 3120 3119 3119 3117 3117 3117 3116 3115 3113 3110 3107 3104 3100 3096 3091 3088 3086 3083 3080 3076 3073 3071 3068 3065 3058 3053 3049 3044 3043 3040 3037 3037 3037 3039 3042 3046 3050 3054 3057
3128 3129 3129 3130 3128 3126 3122 3116 3118 3117 3115 3114 3113 3113 3113 3114 3113 3112 3109 3106 3102 3098 3094 3089 3086 3084 3082 3080 3076 3072 3069 3064 3062 3057 3052 3048 3043 3038 3034 3032 3028 3027 3027 3029 3033 3035 3040 3043 3048
3128 3128 3128 3128 3127 3125 3123 3116 3114 3110 3109 3109 3109 3110 3110 3111 3110 3108 3105 3102 3098 3094 3089 3086 3083 3081 3079 3076 3073 3070 3066 3061 3057 3053 3048 3043 3038 3032 3030 3026 3021 3020 3020 3020 3023 3027 3031 3034 3038
3127 3127 3126 3125 3123 3122 3119 3118 3104 3104 3103 3105 3105 3106 3107 3108 3106 3103 3101 3098 3094 3090 3086 3082 3080 3078 3075 3072 3069 3066 3061 3057 3052 3048 3043 3038 3033 3029 3026 3022 3018 3015 3013 3014 3015 3019 3023 3026 3029
3126 3126 3124 3122 3120 3119 3115 3116 3101 3101 3100 3101 3102 3103 3104 3103 3101 3099 3096 3093 3090 3087 3083 3079 3077 3075 3071 3068 3065 3063 3059 3054 3050 3046 3040 3034 3030 3028 3024 3020 3017 3014 3011 3010 3010 3012 3017 3018 3022
3125 3125 3123 3124 3122 3118 3114 3112 3098 3098 3097 3098 3099 3100 3100 3099 3098 3096 3092 3089 3086 3083 3080 3076 3074 3071 3068 3065 3062 3059 3054 3050 3046 3042 3038 3034 3029 3026 3022 3019 3015 3013 3009 3007 3006 3006 3009 3011 3014
3124 3125 3125 3131 3129 3118 3113 3104 3095 3095 3095 3095 3096 3096 3096 3096 3094 3092 3089 3086 3082 3080 3077 3073 3071 3068 3065 3062 3058 3054 3050 3046 3042 3039 3035 3031 3027 3025 3020 3015 3012 3009 3005 3002 3001 3001 3002 3003 3004
3123 3124 3126 3125 3123 3121 3107 3099 3096 3092 3093 3093 3093 3093 3093 3091 3090 3088 3085 3081 3079 3076 3074 3070 3068 3065 3061 3057 3053 3050 3047 3044 3040 3037 3033 3029 3025 3022 3018 3014 3010 3006 3002 3000 2998 2998 2997 2998 2998
3122 3125 3125 3124 3127 3123 3103 3097 3090 3089 3090 3090 3089 3090 3089 3088 3086 3083 3081 3078 3075 3072 3070 3067 3064 3060 3057 3054 3050 3047 3044 3041 3038 3034 3031 3028 3024 3019 3015 3012 3009 3005 3001 2998 2995 2994 2994 2994 2994
3121 3120 3122 3123 3122 3120 3113 3091 3087 3086 3087 3086 3086 3086 3086 3084 3081 3078 3075 3073 3070 3068 3066 3063 3060 3057 3054 3052 3048 3045 3042 3038 3035 3031 3028 3025 3021 3017 3013 3008 3006 3004 3000 2997 2995 2993 2990 2989 2989
3117 3117 3118 3119 3117 3114 3111 3083 3083 3083 3083 3084 3083 3082 3080 3077 3074 3071 3068 3066 3064 3062 3060 3058 3055 3052 3050 3047 3045 3042 3038 3035 3032 3029 3025 3022 3018 3014 3010 3006 3001 2997 2995 2993 2989 2988 2988 2987 2984